This is the latest recevied weather packets stored in our database for station/object K7TSD. If no packets are shown the sender has not sent any weather packets the latest 10 day(s).
| Time | Temp. | Humidity | Pressure | Rain* | Wind** | Luminosity | Snow |
|---|---|---|---|---|---|---|---|
| 1778176463 | 8.33° C | 91% | 1011 hPa | 0 mm | - | 173 W/m² | - |
| 1778176161 | 8.89° C | 90% | 1010.9 hPa | 0 mm | - | 159 W/m² | - |
| 1778175858 | 8.89° C | 93% | 1011 hPa | 0 mm | - | 216 W/m² | - |
| 1778175556 | 8.89° C | 93% | 1010.7 hPa | 0 mm | - | 317 W/m² | - |
| 1778175252 | 8.33° C | 93% | 1010.8 hPa | 0 mm | - | 405 W/m² | - |
| 1778174949 | 8.33° C | 92% | 1011 hPa | 0 mm | - | 206 W/m² | - |
| 1778174646 | 8.89° C | 91% | 1010.8 hPa | 0 mm | - | 184 W/m² | - |
| 1778174341 | 8.89° C | 93% | 1010.7 hPa | 0 mm | - | 418 W/m² | - |
| 1778174038 | 8.33° C | 96% | 1010.4 hPa | 1.27 mm | - | 396 W/m² | - |
| 1778173735 | 7.78° C | 96% | 1010.6 hPa | 1.27 mm | - | 250 W/m² | - |
| 1778173432 | 7.78° C | 96% | 1010.6 hPa | 1.78 mm | - | 127 W/m² | - |
| 1778173128 | 7.78° C | 96% | 1010.9 hPa | 4.83 mm | - | 78 W/m² | - |
| 1778172824 | 7.78° C | 96% | 1011.4 hPa | 6.1 mm | - | 72 W/m² | - |
| 1778172520 | 7.78° C | 96% | 1011.4 hPa | 4.83 mm | - | 63 W/m² | - |
| 1778172217 | 7.78° C | 95% | 1011 hPa | 4.83 mm | - | 52 W/m² | - |
| 1778171914 | 7.78° C | 95% | 1011 hPa | 3.05 mm | - | 53 W/m² | - |
| 1778171612 | 8.33° C | 94% | 1010.9 hPa | 3.05 mm | - | 59 W/m² | - |
| 1778171308 | 8.33° C | 94% | 1011 hPa | 3.05 mm | - | 76 W/m² | - |
| 1778171004 | 8.33° C | 94% | 1011 hPa | 1.78 mm | - | 122 W/m² | - |
| 1778170701 | 8.33° C | 94% | 1011 hPa | 3.05 mm | - | 161 W/m² | - |
| 1778170397 | 8.33° C | 93% | 1011.1 hPa | 3.05 mm | - | 79 W/m² | - |
| 1778170094 | 8.33° C | 93% | 1010.8 hPa | 3.05 mm | - | 53 W/m² | - |
| 1778169790 | 8.33° C | 92% | 1010.9 hPa | 6.1 mm | - | 66 W/m² | - |
| 1778169486 | 8.33° C | 91% | 1011 hPa | 7.87 mm | - | 70 W/m² | - |
| 1778169182 | 8.89° C | 89% | 1010.8 hPa | 6.1 mm | - | 54 W/m² | - |
* Rain latest hour (hover to see other rain measurements)
** Current wind speed in m/s (hover to see current wind gust speed)